Regional Weather Roundup
Issued by NWS Wakefield, VA

Home | Current Version | Previous Version | Graphics & Text | Print | Product List | Glossary On
Versions: 1 2 3 4 5 6 7 8 9 10 11 12 13 14 15 16 17 18 19 20 21 22 23 24 25 26 27 28 29 30 31 32 33 34 35 36 37 38 39 40 41 42 43 44 45 46
000
ASUS41 KAKQ 300613
RWRAKQ

REGIONAL WEATHER ROUNDUP
NATIONAL WEATHER SERVICE WAKEFIELD VA
200 AM EDT MON MAR 30 2015

Note: "fair" indicates few or no clouds below 12,000 feet with no
significant weather and/or obstructions to visibility. * = Denotes
station may not report precipitation (e.g., rain,snow,etc.),
thunder or fog.

VAZ042-051-052>054-056-300700-
NORTHERN VIRGINIA

CITY           SKY/WX    TMP DP  RH WIND       PRES   REMARKS
WASH NATIONAL  CLOUDY    43  28  56 S17       30.07F
DULLES         CLOUDY    42  13  30 S13G18    30.04F
FORT BELVOIR   CLOUDY    43  15  32 SE7       30.07F
QUANTICO       CLOUDY    45  20  36 SW16      30.09F
FREDERICKSBRG* CLOUDY    45  15  30 S8        30.07F
STAFFORD*      CLOUDY    42  10  27 S9        30.11F
WARRENTON      CLOUDY    45  21  39 S8        30.04F
CULPEPER*      CLOUDY    45  12  26 S6        30.05F
MANASSAS*      CLOUDY    43  14  31 S9        30.06F
LEESBURG*      CLOUDY    43  19  39 S7        30.04F
WINCHESTER     CLOUDY    43   3  19 S6        29.99F
FRONT ROYAL*   CLOUDY    43  12  28 S5        29.98F
LURAY*         MOCLDY    45  16  31 SW10      29.99F
$$

VAZ048-049-060>072-079>083-300700-
CENTRAL AND SOUTH CENTRAL VIRGINIA

CITY           SKY/WX    TMP DP  RH WIND       PRES   REMARKS
RICHMOND       CLOUDY    43  16  33 S14       30.13F
CHESTERFIELD*  NOT AVBL
PETERSBURG*    MOCLDY    40  15  37 S3        30.15F
HANOVER        CLOUDY    43  13  29 S14       30.13F
TAPPAHANNOCK*  CLOUDY    41  11  29 S6        30.14F
QUINTON*       FAIR      39  18  41 CALM      30.14F
CHARLOTTSVILLE CLOUDY    42  12  29 S10       30.04F
GORDONSVILLE*  FAIR      42  14  32 SW8       30.04F
ORANGE*        CLOUDY    45  14  29 S9G16     30.06F
LOUISA*        CLOUDY    45  14  29 S6        30.05F
BUMPASS*       CLOUDY    44  12  27 S7        30.08F
FARMVILLE*     CLOUDY    46  16  29 S12G17    30.06F
CREWE*         FAIR      42  14  31 MISG      30.10F
FORT PICKETT*  FAIR      40  16  37 S8        30.12F
CHASE CITY*    FAIR      45  19  35 S7        30.12F
CLARKSVILLE*   FAIR      41  19  42 S9        30.14F
SOUTH HILL*    MOCLDY    38  17  42 S9G16     30.21F
LAWRENCEVILLE* FAIR      40  18  40 S7        30.16F
EMPORIA*       MOCLDY    36  21  55 S5        30.20F
$$

VAZ088>098-300700-
SOUTHEAST VIRGINIA

CITY           SKY/WX    TMP DP  RH WIND       PRES   REMARKS
NORFOLK        PTCLDY    39  20  46 S9        30.19F
VIRGINIA BEACH MOCLDY    40  25  55 S9        30.19F
NORFOLK NAVAL  MOCLDY    43  21  41 S10G18    30.20F
WEST POINT*    CLOUDY    44  15  31 S8        30.17F
SALUDA*        FAIR      40  19  43 S8        30.15F
NEWPORT NEWS   MOCLDY    44  20  38 S10       30.18F
LANGLEY AFB    MOCLDY    40  21  46 SW8       30.18F
FORT EUSTIS    CLOUDY    42  23  47 SW10      30.16F
WILLIAMSBURG*  CLOUDY    45  21  39 S7        30.18F
HR EXEC AP*    FAIR      37  21  52 S6        30.21F
FRANKLIN*      MOCLDY    38  20  48 S8        30.21F
WAKEFIELD      NOT AVBL
$$

VAZ020-022-025-037-045-300700-
WEST CENTRAL AND SOUTHWEST VIRGINIA

CITY           SKY/WX    TMP DP  RH WIND       PRES   REMARKS
STAUNTON*      CLOUDY    44  12  28 SW8       30.02F
WAYNESBORO*    MOCLDY    40  14  35 S3        30.01S
HOT SPRINGS VA CLOUDY    37  10  32 SW12      29.94F
LYNCHBURG      PTCLDY    42  15  33 S13       30.06F
DANVILLE       MOCLDY    46  16  30 S8G18     30.11F
SOUTH BOSTON*  FAIR      44  13  28 S8        30.11F
MARTINSVILLE   PTCLDY    44  17  33 SW8       30.12F
ROANOKE        CLOUDY    45  13  27 SW6       30.06F
BLACKSBURG     CLOUDY    34  17  48 CALM      30.07F
DUBLIN*        CLOUDY    42  18  36 SW7       30.05F
MARION*        CLOUDY    37  20  50 CALM      30.07F
HILLSVILLE*    MOCLDY    39  15  37 S12       30.06F
RICHLANDS*     CLOUDY    48  19  30 SW17G35   30.03S
WISE*          CLOUDY    46  23  39 SW22G30   30.04F
ABINGDON*      CLOUDY    48  17  28 W9        30.07F
$$

MDZ021>025-VAZ099-100-300700-
SOUTHERN MARYLAND AND THE DELMARVA PENINSULA

CITY           SKY/WX    TMP DP  RH WIND       PRES   REMARKS
PATUXENT RIVER CLOUDY    40  20  44 S9G17     30.12F
BAY BRIDGE APT   N/A     41  25  52 S14G20    30.10F
LEONARDTOWN    NOT AVBL
DOVER          CLOUDY    35  17  47 S9        30.11F
GEORGETOWN     MOCLDY    34  19  54 S10       30.13F
EASTON         CLOUDY    40  29  62 S10       30.15F
CAMBRIDGE      CLOUDY    41  30  65 S13       30.12F
SALISBURY      MOCLDY    33  22  63 S8        30.14F
OCEAN CITY     PTCLDY    38  27  64 VRB7      30.16F
WALLOPS ISLAND MOCLDY    38  30  73 SW13      30.17F
ACCOMACK*      MOCLDY    37  30  75 S10G16    30.16F
$$

NCZ012>017-030>032-300700-
NORTH CENTRAL AND EASTERN NORTH CAROLINA

CITY           SKY/WX    TMP DP  RH WIND       PRES   REMARKS
ROANOKE RAPIDS FAIR      37  21  52 S8        30.20F
RALEIGH        PTCLDY    42  17  36 SW12      30.19F
ELIZABETH CITY CLEAR     39  26  59 S6        30.22F
AHOSKIE*       PTCLDY    34  22  61 S6        30.22S
EDENTON*       CLEAR     42  27  55 S12       30.23F
CURRITUCK*     CLEAR     37  26  65 CALM      30.24F
KILL DEVIL HLS CLEAR     40  27  59 S6        30.23F
MANTEO         CLEAR     42  26  52 SW10      30.26F
CAPE HATTERAS  CLEAR     41  23  48 W7        30.28S
TARBORO*       FAIR      39  20  45 S6        30.24S
GOLDSBORO      CLEAR     39  26  58 S7        30.22F
WASHINGTON     CLEAR     37  23  55 S7        30.25F
GREENVILLE     CLEAR     37  23  56 S9        30.24F
NEW BERN       CLEAR     38  29  70 S5        30.27F
WILMINGTON     CLEAR     33  31  92 CALM      30.27F
$$

VAZ048-300700-
ELSEWHERE

CITY           SKY/WX    TMP DP  RH WIND       PRES   REMARKS
HARRISBURG PA  LGT SNOW  40  19  43 SW30G41   30.07R
BALTIMORE      CLOUDY    38  15  39 SW7       30.08F
ANNAPOLIS      CLOUDY    39  27  62 S9        30.10F
ANDREWS AFB    MIX PCPN  40  18  40 S16G25    30.07F
PHILADELPHIA   CLOUDY    38  16  40 S8        30.10F
HENDERSON NC   CLEAR     38  15  38 S9        30.16F
GREENSBORO     MOCLDY    44  16  32 SW15      30.12F
ROCKY MOUNT    CLEAR     38  21  50 S7        30.22F
$$

VAZ100-300700-
MARINE

STATION/POSITION TIME  TEMP    WIND        PRES    WAVE   SWELL
                       AIR SEA DIR/SP/G            HT/PER HT/PER
                 (UTC) (F)     (DEG/KT/KT) (MB)    (FT/S) (FT/S)
BRANDYWINE LGT   0500   37 39  220/ 19/ 20 1021.6F
CAPE MAY NJ      0500   38 43  210/  9/ 12 1021.4F
LEWES DE         0500   35 41  210/  4/  8 1021.9F
15NM E FENWICK I 0550   39 39              1021.2F   3/10
OCEAN-CITY-INLET 0500   38 40  230/ 12/ 15 1022.2F
WACHAPREAGUE VA  0500   39 44  210/ 10/ 13 1023.1F
THOMAS POINT MD  0600                        N/A
COVE POINT MD    0500   39     190/ 16/ 18 1020.5F
SOLOMONS ISLAND  0500      42                N/A
BISHOPS HEAD MD  0500          180/ 15/ 17 1021.1F
CAMBRIDGE MD     0500   38 43  160/  4/  8 1020.6F
LEWISETTA VA     0500   39 42              1020.9F
RAPPAHANNOCK LGT 0500          160/ 14/ 15 1022.9F
STINGRAY PT      0600   42 44  190/ 14/ 17   N/A     2/ 3
YORK RVR RNG VA  0500   42     210/ 16/ 18 1022.0F
YORKTOWN VA      0500   42 46  200/  8/ 12 1022.3F
DOMINION TERM VA 0500   40     190/ 11/ 14 1022.9F
KIPTOPEKE VA     0500      48  200/ 15/ 18   N/A
CHES BAY BRIDGE  0500   39 43  180/ 12/ 14 1023.0F
CAPE HENRY VA    0500   37     180/  8/ 10 1022.3F
CHESAPEAKE LGHT  0500   39     190/ 17/ 18 1024.2F
WILLOUBY STN VA  0500   41     180/ 14/ 15 1023.4F
S CRANEY ISL VA  0500          180/ 11/ 14 1023.2F
CAPE HENRY BUOY  0528      40                N/A     3/11   2/11
1ST LANDING BUOY 0600   40     200/ 14/ 17 1021.7F   1/ 3
OFFSHORE WE BUOY 0511      41                N/A     4/10   3/10
64NM E OF VA BCH 0550   44 54  230/ 14/ 17 1023.5F   4/10   3/10
DUCK PIER NC     0500   42 43  190/  7/ 11 1023.5F
44056 DUCK FRF   0511      42                N/A     3/10   2/11
OREGON INLET NC  0500   40 44  170/ 10/ 12 1025.0F
HATTERAS NC      0500   43 50  250/  6/  8 1025.4F
CAPE LOOKOUT NC  0600   47     240/ 10/ 13 1024.8F
$$


USA.gov is the U.S. government's official web portal to all federal, state and local government web resources and services.